sat.trackr.live / text

‹ back to catalog

STARLINK-6218

NORAD 57368 · 2023-099AS

PAYLOAD ACTIVE UNKNOWN

§ Identity

Operator
Country
US
Launch date
2023-07-16
Launch site
AFETR
Launch vehicle
Mass (kg)
RCS (m²)

Purposes: comms

External: N2YO · Heavens-Above · Gunter

§ Orbital elements

Epoch: 2026-09-20T05:56:45.859200Z

Period
94.27 min
Inclination
43.0012°
Eccentricity
0.0001199
Mean motion
15.27574071 rev/d
Perigee alt
482.2 km
Apogee alt
483.9 km
Semi-major
6,861.2 km
B*
-3.5246e-6
RAAN
222.9823°
Arg perigee
268.4840°
Mean anomaly
91.5874°
Rev number
17,595

§ Raw data

STARLINK-62181 57368U 23099AS  26263.24775300 -.00000359  00000+0 -35246-5 0  99922 57368  43.0012 222.9823 0001199 268.4840  91.5874 15.27574071175951

JSON: /api/v1/satellites/57368 · /tle

For live sub-satellite position, see the globe view (requires WebGL).

§ Visibility from observer

Set your observer location to see the next 7 days of passes ≥ 10°. The values pass through the URL so the page stays shareable.

No JS? Fill the form by hand. The geolocation button needs JavaScript.